When you browse on this site, cookies collect data to enhance your experience and personalize the content and advertising you see.
Visit our Privacy Policy to learn more. By continuing to use the site, you agree to this use of cookies and data.
  • en Belgique
  • Liste des pays
  • À 7 jours
  • Température de l'eau
  • Carte satellitaire
  • Carte météo
  • Widgets météo
  • user-avatar
    Se connecter

    Météo par heure à Bruxelles

    Ce jour, 14 Décembre, Vendredi

    Heure Température Précipitation Vent Pression Humidité
    00:00 -2°C° 0 mm 3 m/s 762 mmHg 83%
    01:00 -2°C° 0 mm 3 m/s 762 mmHg 85%
    02:00 -2°C° 0 mm 3 m/s 762 mmHg 86%
    03:00 -2°C° 0 mm 3 m/s 762 mmHg 88%
    04:00 -2°C° 0 mm 2 m/s 762 mmHg 89%
    05:00 -2°C° 0 mm 2 m/s 762 mmHg 89%
    06:00 -2°C° 0 mm 2 m/s 763 mmHg 91%
    07:00 -2°C° 0 mm 2 m/s 763 mmHg 88%
    08:00 -1°C° 0 mm 2 m/s 763 mmHg 86%
    09:00 -1°C° 0 mm 2 m/s 763 mmHg 84%
    10:00 0°C° 0 mm 3 m/s 763 mmHg 76%
    11:00 +1°C° 0 mm 3 m/s 763 mmHg 69%
    12:00 +1°C° 0 mm 3 m/s 763 mmHg 61%
    13:00 +1°C° 0 mm 3 m/s 764 mmHg 62%
    14:00 +2°C° 0 mm 2 m/s 764 mmHg 64%
    15:00 +1°C° 0 mm 2 m/s 764 mmHg 65%
    16:00 +1°C° 0 mm 2 m/s 764 mmHg 66%
    17:00 +1°C° 0 mm 2 m/s 764 mmHg 66%
    18:00 +1°C° 0 mm 2 m/s 765 mmHg 67%
    19:00 -1°C° 0 mm 2 m/s 765 mmHg 68%
    20:00 -1°C° 0 mm 2 m/s 765 mmHg 70%
    21:00 -1°C° 0 mm 2 m/s 765 mmHg 71%
    22:00 -2°C° 0 mm 2 m/s 765 mmHg 73%
    23:00 -2°C° 0 mm 2 m/s 765 mmHg 74%

    Demain, 15 Décembre, Samedi

    Heure Température Précipitation Vent Pression Humidité
    00:00 0°C° 0 mm 1 m/s 765 mmHg 76%
    01:00 -3°C° 0 mm 2 m/s 765 mmHg 76%
    02:00 -3°C° 0 mm 2 m/s 765 mmHg 76%
    03:00 -3°C° 0 mm 2 m/s 765 mmHg 77%
    04:00 -3°C° 0 mm 2 m/s 764 mmHg 77%
    05:00 -3°C° 0 mm 2 m/s 764 mmHg 77%
    06:00 -3°C° 0 mm 2 m/s 764 mmHg 77%
    07:00 -4°C° 0 mm 3 m/s 764 mmHg 74%
    08:00 -2°C° 0 mm 3 m/s 764 mmHg 71%
    09:00 -3°C° 0 mm 4 m/s 764 mmHg 68%
    10:00 -2°C° 0 mm 4 m/s 763 mmHg 64%
    11:00 -1°C° 0 mm 4 m/s 762 mmHg 59%
    12:00 0°C° 0 mm 5 m/s 762 mmHg 55%
    13:00 0°C° 0 mm 5 m/s 761 mmHg 55%
    14:00 0°C° 0 mm 5 m/s 760 mmHg 56%
    15:00 0°C° 0 mm 5 m/s 760 mmHg 57%
    16:00 -1°C° 0 mm 6 m/s 759 mmHg 56%
    17:00 -1°C° 0 mm 6 m/s 758 mmHg 56%
    18:00 -1°C° 0 mm 7 m/s 757 mmHg 55%
    19:00 -1°C° 0.8 mm 7 m/s 756 mmHg 61%
    20:00 -1°C° 0.8 mm 8 m/s 755 mmHg 66%
    21:00 -1°C° 0.8 mm 9 m/s 754 mmHg 72%
    22:00 -1°C° 2.5 mm 9 m/s 754 mmHg 77%
    23:00 0°C° 2.5 mm 9 m/s 753 mmHg 81%

    Après-demain, 16 Décembre, Dimanche

    Heure Température Précipitation Vent Pression Humidité
    00:00 0°C° 2.5 mm 8 m/s 752 mmHg 86%
    01:00 0°C° 0.2 mm 8 m/s 752 mmHg 87%
    02:00 0°C° 0.2 mm 7 m/s 752 mmHg 89%
    03:00 +2°C° 0.2 mm 7 m/s 751 mmHg 90%
    04:00 +2°C° 0 mm 6 m/s 752 mmHg 91%
    05:00 +2°C° 0 mm 6 m/s 752 mmHg 92%
    06:00 +2°C° 0 mm 6 m/s 752 mmHg 92%
    07:00 +2°C° 0 mm 6 m/s 753 mmHg 92%
    08:00 +2°C° 0 mm 5 m/s 753 mmHg 92%
    09:00 +2°C° 0 mm 5 m/s 753 mmHg 92%
    10:00 +2°C° 0.2 mm 5 m/s 754 mmHg 92%
    11:00 +3°C° 0.2 mm 5 m/s 754 mmHg 92%
    12:00 +3°C° 0.2 mm 5 m/s 754 mmHg 91%
    13:00 +3°C° 0.1 mm 5 m/s 754 mmHg 92%
    14:00 +3°C° 0.1 mm 5 m/s 754 mmHg 93%
    15:00 +3°C° 0.1 mm 4 m/s 755 mmHg 94%
    16:00 +3°C° 0 mm 4 m/s 755 mmHg 94%
    17:00 +3°C° 0 mm 4 m/s 755 mmHg 95%
    18:00 +3°C° 0 mm 4 m/s 755 mmHg 95%
    19:00 +3°C° 0 mm 4 m/s 756 mmHg 95%
    20:00 +3°C° 0 mm 4 m/s 756 mmHg 94%
    21:00 +3°C° 0 mm 3 m/s 756 mmHg 94%
    22:00 +2°C° 0 mm 3 m/s 757 mmHg 94%
    23:00 +2°C° 0 mm 3 m/s 757 mmHg 94%

    17 Décembre, Lundi

    Heure Température Précipitation Vent Pression Humidité
    00:00 +2°C° 0 mm 3 m/s 757 mmHg 94%
    01:00 +2°C° 0 mm 3 m/s 757 mmHg 94%
    02:00 +2°C° 0 mm 3 m/s 757 mmHg 94%
    03:00 +3°C° 0 mm 3 m/s 757 mmHg 94%
    04:00 +3°C° 0.1 mm 3 m/s 757 mmHg 94%
    05:00 +3°C° 0.1 mm 3 m/s 757 mmHg 94%
    06:00 +3°C° 0.1 mm 3 m/s 757 mmHg 94%
    07:00 +3°C° 0.4 mm 3 m/s 758 mmHg 94%
    08:00 +4°C° 0.4 mm 2 m/s 759 mmHg 94%
    09:00 +4°C° 0.4 mm 2 m/s 759 mmHg 94%
    10:00 +5°C° 0.2 mm 2 m/s 760 mmHg 93%
    11:00 +5°C° 0.2 mm 2 m/s 760 mmHg 91%
    12:00 +5°C° 0.2 mm 3 m/s 760 mmHg 89%
    13:00 +6°C° 0 mm 2 m/s 761 mmHg 91%
    14:00 +5°C° 0 mm 2 m/s 761 mmHg 92%
    15:00 +5°C° 0 mm 2 m/s 762 mmHg 94%
    16:00 +5°C° 0 mm 2 m/s 762 mmHg 94%
    17:00 +3°C° 0 mm 3 m/s 763 mmHg 94%
    18:00 +3°C° 0 mm 3 m/s 763 mmHg 94%
    19:00 +3°C° 0 mm 3 m/s 763 mmHg 93%
    20:00 +3°C° 0 mm 4 m/s 764 mmHg 93%
    21:00 +3°C° 0 mm 4 m/s 764 mmHg 93%
    22:00 +3°C° 0 mm 4 m/s 764 mmHg 93%
    23:00 +3°C° 0 mm 4 m/s 764 mmHg 92%

    18 Décembre, Mardi

    Heure Température Précipitation Vent Pression Humidité
    00:00 +2°C° 0 mm 5 m/s 763 mmHg 92%
    01:00 +2°C° 0 mm 5 m/s 763 mmHg 92%
    02:00 +2°C° 0 mm 5 m/s 763 mmHg 92%
    03:00 +2°C° 0 mm 5 m/s 763 mmHg 92%
    04:00 +2°C° 0 mm 5 m/s 762 mmHg 92%
    05:00 +2°C° 0 mm 6 m/s 762 mmHg 92%
    06:00 +2°C° 0 mm 6 m/s 761 mmHg 92%
    07:00 +3°C° 0 mm 6 m/s 761 mmHg 91%
    08:00 +3°C° 0 mm 6 m/s 761 mmHg 89%
    09:00 +3°C° 0 mm 6 m/s 761 mmHg 88%
    10:00 +4°C° 0 mm 7 m/s 760 mmHg 81%
    11:00 +5°C° 0 mm 7 m/s 759 mmHg 74%
    12:00 +6°C° 0 mm 8 m/s 758 mmHg 68%
    13:00 +5°C° 0 mm 8 m/s 757 mmHg 65%
    14:00 +5°C° 0 mm 8 m/s 756 mmHg 63%
    15:00 +5°C° 0 mm 8 m/s 755 mmHg 61%
    16:00 +5°C° 0.1 mm 8 m/s 754 mmHg 63%
    17:00 +5°C° 0.1 mm 8 m/s 754 mmHg 65%
    18:00 +5°C° 0.1 mm 8 m/s 754 mmHg 67%
    19:00 +5°C° 0.8 mm 8 m/s 754 mmHg 72%
    20:00 +5°C° 0.8 mm 8 m/s 753 mmHg 78%
    21:00 +5°C° 0.8 mm 8 m/s 753 mmHg 83%
    22:00 +5°C° 0.2 mm 7 m/s 753 mmHg 85%
    23:00 +5°C° 0.2 mm 7 m/s 753 mmHg 87%

    19 Décembre, Mercredi

    Heure Température Précipitation Vent Pression Humidité
    00:00 +5°C° 0.2 mm 6 m/s 754 mmHg 89%
    01:00 +5°C° 0 mm 6 m/s 754 mmHg 90%
    02:00 +6°C° 0 mm 5 m/s 754 mmHg 91%
    03:00 +5°C° 0 mm 5 m/s 754 mmHg 92%
    04:00 +5°C° 0 mm 5 m/s 754 mmHg 91%
    05:00 +4°C° 0 mm 6 m/s 754 mmHg 91%
    06:00 +4°C° 0 mm 6 m/s 754 mmHg 91%
    07:00 +4°C° 0.2 mm 7 m/s 754 mmHg 90%
    08:00 +5°C° 0.2 mm 7 m/s 754 mmHg 88%
    09:00 +5°C° 0.2 mm 7 m/s 754 mmHg 87%
    10:00 +5°C° 0.4 mm 7 m/s 754 mmHg 85%
    11:00 +6°C° 0.4 mm 7 m/s 754 mmHg 82%
    12:00 +6°C° 0.4 mm 7 m/s 754 mmHg 79%
    13:00 +7°C° 0.1 mm 6 m/s 754 mmHg 79%
    14:00 +7°C° 0.1 mm 6 m/s 754 mmHg 79%
    15:00 +6°C° 0.1 mm 5 m/s 754 mmHg 79%
    16:00 +6°C° 0 mm 5 m/s 754 mmHg 80%
    17:00 +5°C° 0 mm 6 m/s 754 mmHg 81%
    18:00 +4°C° 0 mm 6 m/s 754 mmHg 81%
    19:00 +4°C° 0 mm 6 m/s 754 mmHg 82%
    20:00 +4°C° 0 mm 7 m/s 754 mmHg 83%
    21:00 +4°C° 0 mm 7 m/s 754 mmHg 84%
    22:00 +5°C° 0 mm 7 m/s 753 mmHg 84%
    23:00 +5°C° 0 mm 7 m/s 753 mmHg 84%
    Voir plus